Location: Unspecified
(20.0000°S, 0.0000°E)
Time: 06:45:12
(UTC+00:00)

NUDT-PHONESAT - Pass Details

Date: 21 July 2019
Orbit: 489 x 505 km, 97.4° (Epoch: 21 August)

Event Time Altitude Azimuth Distance (km) Brightness Sun altitude
Rises 06:01:51 0° 6° (N) 2,571 ? -7.9°
Reaches altitude 10° 06:03:55 10° 3° (N) 1,698 ? -7.4°
Maximum altitude 06:07:33 66° 281° (W) 555 ? -6.6°
Drops below altitude 10° 06:11:15 10° 198° (SSW) 1,728 ? -5.8°
Sets 06:13:22 0° 195° (SSW) 2,622 ? -5.4°
